{"data":{"norad_id":48340,"epoch":"2026-09-20T22:19:29.246304Z","epoch_age_seconds":116650,"freshness":"FRESH","line1":"1 48340U 21037A   26263.93019961 -.00000009  00000+0  13524-3 0  9996","line2":"2 48340  63.4019 260.4669 0048984 353.2686   6.7677 13.45437760264884","mean_motion":13.4543776,"eccentricity":0.0048984,"inclination_deg":63.4019,"raan_deg":260.4669,"arg_perigee_deg":353.2686,"mean_anomaly_deg":6.7677,"bstar":0.00013524,"rev_number":26488,"period_min":107.02836227816,"perigee_km":1052.5138937697,"apogee_km":1125.6688366178,"semimajor_km":7467.2283651938,"source":"CELESTRAK","updated_at":"2026-09-21T09:00:07.741801Z"}}